TimeAKDT,TemperatureF,Dew PointF,Humidity,Sea Level PressureIn,VisibilityMPH,Wind Direction,Wind SpeedMPH,Gust SpeedMPH,PrecipitationIn,Events,Conditions,WindDirDegrees,DateUTC
12:16 AM,50.0,44.6,82,30.12,10.0,Calm,Calm,-,N/A,,Overcast,0,2013-06-13 08:16:00
12:36 AM,50.0,44.6,82,30.12,10.0,West,3.5,-,N/A,,Overcast,260,2013-06-13 08:36:00
12:56 AM,50.0,44.6,82,30.12,10.0,SW,3.5,-,N/A,,Overcast,220,2013-06-13 08:56:00
1:16 AM,50.0,44.6,82,30.13,10.0,WSW,3.5,-,N/A,,Overcast,250,2013-06-13 09:16:00
1:36 AM,50.0,44.6,82,30.12,10.0,SW,5.8,-,N/A,,Overcast,220,2013-06-13 09:36:00
1:56 AM,50.0,44.6,82,30.13,10.0,WSW,6.9,-,N/A,,Overcast,250,2013-06-13 09:56:00
2:16 AM,50.0,44.6,82,30.13,10.0,WSW,8.1,-,N/A,,Overcast,240,2013-06-13 10:16:00
2:36 AM,50.0,44.6,82,30.13,10.0,SW,5.8,-,N/A,,Overcast,230,2013-06-13 10:36:00
2:56 AM,50.0,44.6,82,30.13,10.0,WSW,5.8,-,N/A,,Overcast,240,2013-06-13 10:56:00
3:16 AM,50.0,44.6,82,30.13,10.0,WSW,5.8,-,N/A,,Overcast,250,2013-06-13 11:16:00
3:36 AM,50.0,44.6,82,30.13,10.0,WSW,5.8,-,N/A,,Overcast,250,2013-06-13 11:36:00
3:56 AM,50.0,44.6,82,30.13,10.0,Calm,Calm,-,N/A,,Overcast,0,2013-06-13 11:56:00
4:16 AM,50.0,44.6,82,30.13,10.0,SSW,3.5,-,N/A,,Overcast,210,2013-06-13 12:16:00
4:36 AM,48.2,44.6,87,30.13,10.0,SE,3.5,-,N/A,,Overcast,140,2013-06-13 12:36:00
4:56 AM,48.2,44.6,87,30.13,10.0,ESE,3.5,-,N/A,,Overcast,120,2013-06-13 12:56:00
5:16 AM,48.2,44.6,87,30.13,10.0,Calm,Calm,-,N/A,,Overcast,0,2013-06-13 13:16:00
5:36 AM,48.2,44.6,87,30.13,10.0,SE,4.6,-,N/A,,Overcast,130,2013-06-13 13:36:00
5:56 AM,48.2,46.4,93,30.13,10.0,SSE,4.6,-,N/A,,Overcast,150,2013-06-13 13:56:00
6:16 AM,48.2,46.4,93,30.13,10.0,Calm,Calm,-,N/A,,Overcast,0,2013-06-13 14:16:00
6:36 AM,48.2,46.4,93,30.13,10.0,Calm,Calm,-,N/A,,Overcast,0,2013-06-13 14:36:00
6:56 AM,48.2,46.4,93,30.14,10.0,Calm,Calm,-,N/A,,Overcast,0,2013-06-13 14:56:00
7:16 AM,50.0,46.4,87,30.14,10.0,Calm,Calm,-,N/A,,Overcast,0,2013-06-13 15:16:00
7:36 AM,50.0,46.4,87,30.14,10.0,Calm,Calm,-,N/A,,Overcast,0,2013-06-13 15:36:00
7:56 AM,50.0,46.4,87,30.13,10.0,Calm,Calm,-,N/A,,Overcast,0,2013-06-13 15:56:00
8:16 AM,51.8,46.4,82,30.14,10.0,Calm,Calm,-,N/A,,Overcast,0,2013-06-13 16:16:00
8:36 AM,51.8,44.6,76,30.14,10.0,SSW,3.5,-,N/A,,Overcast,200,2013-06-13 16:36:00
8:56 AM,51.8,44.6,76,30.14,10.0,Calm,Calm,-,N/A,,Overcast,0,2013-06-13 16:56:00
9:16 AM,51.8,44.6,76,30.14,10.0,WSW,3.5,-,N/A,,Overcast,240,2013-06-13 17:16:00
9:36 AM,51.8,44.6,76,30.14,10.0,SW,3.5,-,N/A,,Overcast,230,2013-06-13 17:36:00
10:16 AM,53.6,44.6,72,30.14,10.0,SW,6.9,-,N/A,,Overcast,230,2013-06-13 18:16:00
10:36 AM,53.6,44.6,72,30.15,10.0,WSW,6.9,-,N/A,,Overcast,240,2013-06-13 18:36:00
10:56 AM,53.6,42.8,67,30.15,10.0,WSW,6.9,-,N/A,,Overcast,250,2013-06-13 18:56:00
11:36 AM,53.6,44.6,72,30.15,10.0,SSW,6.9,-,N/A,,Overcast,200,2013-06-13 19:36:00
11:56 AM,53.6,44.6,72,30.16,10.0,South,5.8,-,N/A,,Overcast,190,2013-06-13 19:56:00
12:16 PM,53.6,44.6,72,30.16,10.0,SSW,5.8,-,N/A,,Overcast,210,2013-06-13 20:16:00
12:36 PM,53.6,44.6,72,30.16,10.0,SW,6.9,-,N/A,,Overcast,220,2013-06-13 20:36:00
12:56 PM,53.6,44.6,72,30.16,10.0,SW,5.8,-,N/A,,Overcast,230,2013-06-13 20:56:00
1:16 PM,55.4,44.6,67,30.16,10.0,Calm,Calm,-,N/A,,Overcast,0,2013-06-13 21:16:00
1:36 PM,55.4,44.6,67,30.16,10.0,SSW,3.5,-,N/A,,Overcast,210,2013-06-13 21:36:00
1:56 PM,55.4,44.6,67,30.16,10.0,SW,5.8,-,N/A,,Overcast,230,2013-06-13 21:56:00
2:16 PM,55.4,44.6,67,30.16,10.0,WSW,5.8,-,N/A,,Overcast,240,2013-06-13 22:16:00
2:36 PM,55.4,44.6,67,30.16,10.0,SSW,5.8,-,N/A,,Overcast,210,2013-06-13 22:36:00
2:56 PM,55.4,44.6,67,30.16,10.0,WSW,6.9,-,N/A,,Overcast,240,2013-06-13 22:56:00
3:16 PM,55.4,44.6,67,30.16,10.0,SW,5.8,-,N/A,,Overcast,220,2013-06-13 23:16:00
3:36 PM,55.4,44.6,67,30.16,10.0,WSW,6.9,-,N/A,,Overcast,240,2013-06-13 23:36:00
3:56 PM,57.2,44.6,63,30.16,10.0,SSW,4.6,-,N/A,,Overcast,210,2013-06-13 23:56:00
4:16 PM,55.4,44.6,67,30.16,10.0,WSW,5.8,-,N/A,,Overcast,240,2013-06-14 00:16:00
4:36 PM,55.4,44.6,67,30.16,10.0,SW,6.9,-,N/A,,Overcast,230,2013-06-14 00:36:00
4:56 PM,53.6,42.8,67,30.16,10.0,WSW,8.1,-,N/A,,Overcast,240,2013-06-14 00:56:00
5:16 PM,53.6,44.6,72,30.16,10.0,SW,6.9,-,N/A,,Overcast,230,2013-06-14 01:16:00
5:36 PM,53.6,44.6,72,30.16,10.0,SW,8.1,-,N/A,,Overcast,220,2013-06-14 01:36:00
6:16 PM,55.4,44.6,67,30.16,10.0,West,3.5,-,N/A,,Scattered Clouds,260,2013-06-14 02:16:00
6:36 PM,55.4,44.6,67,30.16,10.0,WSW,4.6,-,N/A,,Partly Cloudy,240,2013-06-14 02:36:00
6:56 PM,55.4,44.6,67,30.16,10.0,WSW,5.8,-,N/A,,Mostly Cloudy,250,2013-06-14 02:56:00
7:16 PM,55.4,44.6,67,30.16,10.0,SW,6.9,-,N/A,,Overcast,230,2013-06-14 03:16:00
7:36 PM,55.4,44.6,67,30.16,10.0,WSW,4.6,-,N/A,,Mostly Cloudy,250,2013-06-14 03:36:00
8:16 PM,55.4,44.6,67,30.16,10.0,WNW,5.8,-,N/A,,Partly Cloudy,290,2013-06-14 04:16:00
8:36 PM,55.4,44.6,67,30.16,10.0,WNW,6.9,-,N/A,,Mostly Cloudy,300,2013-06-14 04:36:00
8:56 PM,53.6,46.4,77,30.17,10.0,West,5.8,-,N/A,,Mostly Cloudy,260,2013-06-14 04:56:00
9:36 PM,51.8,46.4,82,30.17,10.0,West,5.8,-,N/A,,Mostly Cloudy,260,2013-06-14 05:36:00
9:56 PM,51.8,46.4,82,30.17,10.0,WSW,5.8,-,N/A,,Mostly Cloudy,250,2013-06-14 05:56:00
10:36 PM,51.8,44.6,76,30.17,10.0,West,4.6,-,N/A,,Scattered Clouds,260,2013-06-14 06:36:00
10:56 PM,50.0,44.6,82,30.17,10.0,West,4.6,-,N/A,,Mostly Cloudy,270,2013-06-14 06:56:00
11:36 PM,50.0,44.6,82,30.17,10.0,Calm,Calm,-,N/A,,Overcast,0,2013-06-14 07:36:00